Location: Peterborough
(44.3091°N, 78.3197°W)
Time: 17:51:06
(UTC-04:00)

Transit 4A - Pass Details

Date: 28 March 2023
Orbit: 864 x 980 km, 66.8° (Epoch: 04 June)

Event Time Altitude Azimuth Distance (km) Brightness Sun altitude
Rises 14:42:41 0° 331° (NNW) 3,556 10.7 44.8°
Reaches altitude 10° 14:45:20 10° 338° (NNW) 2,629 10.1 44.6°
Maximum altitude 14:51:08 43° 50° (NE) 1,307 8.8 44.0°
Drops below altitude 10° 14:57:04 10° 120° (ESE) 2,689 10.4 43.4°
Sets 14:59:48 0° 127° (SE) 3,645 11.0 43.1°
